Sitka, AK

2:12 PM AKDT on April 21, 2018 (GMT -0800)
Sitka Rocky Gutierrez

Weather History for PASI - August, 2013

Change the Weather History Date:

Wednesday, August 21, 2013

  Actual Average Record
Temperature  
Mean Temperature 59 °F -  
Max Temperature 64 °F 60 °F 70 °F (2014)
Min Temperature 55 °F 51 °F 43 °F (1955)
Degree Days  
Heating Degree Days 6    
Growing Degree Days 9 (Base 50)    
Moisture  
Dew Point 54 °F    
Average Humidity 82    
Maximum Humidity 93    
Minimum Humidity 72    
Precipitation  
Precipitation 0.00 in - - ()
Sea Level Pressure  
Sea Level Pressure 29.97 in    
Wind  
Wind Speed 3 mph (NNW)    
Max Wind Speed 15 mph    
Max Gust Speed -    
Visibility 10 miles    
Events Rain    
Averages and records for this station are not official NWS values.
T = Trace of Precipitation, MM = Missing Value Source: NWS Daily Summary

Daily Weather History Graph

Daily Weather History Graph

Search for Another Location

Airport or City:

Astronomy

Aug. 21, 2013 Rise Set
Actual Time 5:41 AM AKDT 8:25 PM AKDT
Civil Twilight 4:58 AM AKDT 9:08 PM AKDT
Nautical Twilight 4:01 AM AKDT 10:05 PM AKDT
Astronomical Twilight 2:43 AM AKDT 11:20 PM AKDT
Moon 8:09 PM AKDT 6:52 AM AKDT
Length of Visible Light 16h 10m
Length of Day
14h 44m
Full, 99% of the Moon is Illuminated
Aug 21
Full
Aug 28
Last Quarter
Sep 5
New
Sep 12
First Quarter
Sep 19
Full

Hourly Weather History & Observations

Time (AKDT) Temp. Dew Point Humidity Pressure Visibility Wind Dir Wind Speed Gust Speed Precip Events Conditions
12:53 AM 57.0 °F - N/A% 30.10 in 10.0 mi Calm Calm - N/A   Overcast
1:53 AM 57.9 °F - N/A% 30.09 in 10.0 mi Calm Calm - N/A   Overcast
2:53 AM 57.0 °F - N/A% 30.08 in 10.0 mi Calm Calm - 0.00 in   Overcast
3:53 AM 57.0 °F - N/A% 30.06 in 10.0 mi Calm Calm - N/A   Overcast
4:53 AM 55.9 °F - N/A% 30.05 in 10.0 mi East 4.6 mph - N/A   Overcast
5:53 AM 57.0 °F 54.0 °F 89% 30.05 in 10.0 mi Calm Calm - N/A   Overcast
6:53 AM 57.0 °F 54.0 °F 89% 30.04 in 10.0 mi SE 3.5 mph - N/A   Overcast
7:53 AM 57.0 °F 53.1 °F 87% 30.03 in 8.0 mi East 3.5 mph - 0.00 in Rain Light Rain
8:53 AM 57.9 °F 53.1 °F 84% 30.02 in 10.0 mi Calm Calm - 0.00 in   Overcast
9:53 AM 59.0 °F 54.0 °F 83% 30.01 in 9.0 mi Calm Calm - 0.00 in   Overcast
10:53 AM 57.0 °F 55.0 °F 93% 30.00 in 8.0 mi NW 8.1 mph - 0.00 in   Overcast
11:53 AM 59.0 °F 55.0 °F 87% 29.99 in 9.0 mi NW 11.5 mph - N/A   Overcast
12:53 PM 59.0 °F 55.0 °F 87% 29.99 in 10.0 mi NW 10.4 mph - 0.00 in Rain Light Rain
1:53 PM 61.0 °F 54.0 °F 78% 29.95 in 10.0 mi NW 13.8 mph - 0.00 in   Mostly Cloudy
2:53 PM 62.1 °F 54.0 °F 75% 29.93 in 10.0 mi NW 15.0 mph - N/A   Overcast
3:53 PM 63.0 °F 55.0 °F 75% 29.92 in 10.0 mi NW 10.4 mph - N/A   Overcast
4:53 PM 63.0 °F 54.0 °F 72% 29.90 in 10.0 mi NW 4.6 mph - N/A   Overcast
5:53 PM 63.0 °F 54.0 °F 72% 29.89 in 10.0 mi NW 3.5 mph - N/A   Overcast
6:53 PM 62.1 °F 55.9 °F 80% 29.88 in 10.0 mi WSW 5.8 mph - N/A   Overcast
7:53 PM 60.1 °F 55.9 °F 86% 29.87 in 10.0 mi NNW 8.1 mph - N/A   Overcast
8:53 PM 60.1 °F 54.0 °F 80% 29.87 in 10.0 mi North 8.1 mph - N/A   Overcast
9:53 PM 59.0 °F 54.0 °F 83% 29.87 in 10.0 mi North 3.5 mph - N/A   Overcast
10:53 PM 59.0 °F 54.0 °F 83% 29.86 in 10.0 mi Calm Calm - N/A   Overcast
11:53 PM 59.0 °F 53.1 °F 81% 29.86 in 10.0 mi Calm Calm - N/A   Overcast